Location: Newark
(45.2500°N, 7.5833°E)
Time: 06:31:48
(UTC+00:00)

N. Korean satellite - Pass Details

Date: 16 December 2019
Orbit: 454 x 507 km, 97.2° (Epoch: 27 January)

Event Time Altitude Azimuth Distance (km) Brightness Sun altitude
Rises 17:46:03 0° 217° (SW) 2,594 11.1 -19.9°
Reaches altitude 10° 17:49:45 10° 256° (WSW) 1,709 10.5 -20.5°
Maximum altitude 17:50:40 11° 271° (W) 1,663 10.4 -20.6°
Drops below altitude 10° 17:51:34 10° 285° (WNW) 1,708 10.2 -20.8°
Sets 17:55:17 0° 325° (NW) 2,586 10.6 -21.4°
